Simultaneous Nadir Overpasses (SNOs) Predictions

Prediction of SNOs between NOAA-19 and TERRA Satellite Orbit:

Table of predicted SNOs for the next 14.0 days since TLE Epoch: 7/27/2019
Index Date (NOAA-19) Time (NOAA-19) Lat,Lon (NOAA-19) SZA (NOAA-19 ) Date (TERRA) Time (TERRA) Lat,Lon (TERRA) SZA (TERRA ) Distance(km) Time Diff (sec)
1 07/28/2019 12:27:13 78.63, 15.86 60.42 07/28/2019 12:28:11 78.63, 16.00 60.45 3.26 58
2 07/28/2019 13:18:12 -78.58,-176.58 119.60 07/28/2019 13:17:39 -78.60,-176.53 119.59 2.21 33
3 07/30/2019 18:00:44 -78.88, 110.77 118.95 07/30/2019 18:01:52 -78.78, 113.36 118.83 56.92 68
4 07/30/2019 18:51:37 78.60, -79.98 60.95 07/30/2019 18:51:22 78.60, -79.95 60.95 0.78 15
5 08/02/2019 00:25:00 -78.60, 16.77 118.49 08/02/2019 00:25:06 -78.62, 16.72 118.47 2.61 6
6 08/04/2019 05:58:26 78.62, 113.35 62.11 08/04/2019 05:58:49 78.62, 113.26 62.10 2.20 23
7 08/04/2019 06:49:24 -78.60, -79.24 117.90 08/04/2019 06:48:17 -78.59, -79.25 117.93 1.19 67
8 08/06/2019 11:31:48 -78.63,-149.94 117.28 08/06/2019 11:32:33 -78.63,-150.09 117.28 3.40 45
9 08/06/2019 12:22:50 78.60, 17.47 62.72 08/06/2019 12:21:59 78.62, 17.48 62.72 1.98 51
10 08/08/2019 17:05:15 78.65, -53.37 63.36 08/08/2019 17:06:15 78.66, -53.37 63.39 1.26 60




NCC Satellite Simultaneous Nadir Overpasses (SNOs) Prediction Service
